Location: Raleigh
(35.7720°N, 78.6390°W)
Time: 04:48:48
(UTC-05:00)

Amateur Radio Satellites - All Passes

Search period start: 20 January 2017 04:18
Search period end: 21 January 2017 04:18
Location: Raleigh, 35.7720°N, 78.6390°W

Satellite Date Start Highest point End Downlink Frequencies (MHz)
Time Altitude Azimuth
M-CUBED/EXP-1 PRIME 20 Jan 04:20:54 04:24:09 20° 259° (W) 04:27:18 437.505
AIST 2 20 Jan 04:31:57 04:36:00 41° 57° (ENE) 04:40:00 435.215
CUSAT 1 20 Jan 04:47:09 04:50:35 17° 297° (WNW) 04:54:35 437.405
CUBESAT XI-V 20 Jan 04:57:39 05:02:03 40° 262° (W) 05:06:30 437.345
KKS-1 20 Jan 04:58:24 05:01:15 17° 266° (W) 05:04:06 437.445
ISS 20 Jan 05:04:32 05:07:40 43° 38° (NE) 05:10:46 145.825
BRITE-PL 20 Jan 05:06:48 05:11:38 68° 100° (E) 05:16:04 437.365/2234.400
GOMX 1 20 Jan 05:13:45 05:17:27 26° 95° (E) 05:21:00 467.674
LilacSat-2 20 Jan 05:26:11 05:28:15 14° 93° (E) 05:30:18 437.200
RS-15 20 Jan 05:27:26 05:34:23 16° 13° (NNE) 05:41:17 29.354- 29.394
DANDE 20 Jan 05:33:34 05:35:50 15° 296° (WNW) 05:38:27 436.750
Cubesat XI-IV 20 Jan 05:35:50 05:39:42 20° 94° (E) 05:43:35 437.490
NOAA 15 20 Jan 05:46:03 05:50:31 27° 96° (E) 05:54:57 137.62
PHONESAT 2.4 20 Jan 05:46:15 05:48:25 37° 14° (NNE) 05:50:35 2401.200-2431.200
AO-7 20 Jan 05:54:07 05:59:56 22° 304° (NW) 06:05:46 29.400- 29.500
DOVE 4 20 Jan 05:55:02 05:58:36 27° 96° (E) 06:02:09 437.250
HORYU 2 20 Jan 06:00:02 06:04:29 71° 284° (WNW) 06:08:54 437.375
Cosmos 2499 20 Jan 06:07:13 06:13:16 29° 74° (ENE) 06:19:15 435.465 / 435.565
AIST 2 20 Jan 06:11:36 06:14:05 15° 251° (WSW) 06:16:34 435.215
O/OREOS (USA 219) 20 Jan 06:16:37 06:21:03 68° 108° (ESE) 06:25:30 437.305
CUTE-I 20 Jan 06:31:33 06:36:54 74° 103° (ESE) 06:42:14 437.470
STRAND 1 20 Jan 06:31:39 06:36:35 54° 73° (ENE) 06:41:33 437.568
ISS 20 Jan 06:41:59 06:43:51 14° 232° (SW) 06:45:42 145.825
BRITE-PL 20 Jan 06:48:09 06:49:19 11° 298° (WNW) 06:50:29 437.365/2234.400
GOMX 1 20 Jan 06:52:05 06:55:22 21° 292° (WNW) 06:58:34 467.674
GONETS M04 20 Jan 06:55:41 07:04:23 58° 80° (E) 07:13:02
LilacSat-2 20 Jan 06:59:07 07:02:36 33° 287° (WNW) 07:06:05 437.200
SO-50 20 Jan 07:06:02 07:10:01 27° 112° (ESE) 07:13:57 436.795
Cubesat XI-IV 20 Jan 07:14:53 07:19:54 43° 289° (WNW) 07:24:56 437.490
NOAA 18 20 Jan 07:15:40 07:21:09 83° 286° (WNW) 07:26:35 137.9125
CUTE 1.7 + AOD 2 20 Jan 07:16:44 07:20:28 28° 96° (E) 07:24:09 437.475
PHONESAT 2.4 20 Jan 07:20:25 07:22:26 27° 209° (SSW) 07:24:27 2401.200-2431.200
NOAA 15 20 Jan 07:25:33 07:30:15 33° 291° (WNW) 07:34:55 137.62
CINEMA 3 20 Jan 07:26:01 07:30:12 70° 101° (E) 07:34:31 145.822/145.860
DOVE 4 20 Jan 07:33:10 07:36:07 19° 291° (WNW) 07:39:03 437.250
RS-15 20 Jan 07:40:33 07:51:57 40° 45° (NE) 08:02:55 29.354- 29.394
CANX-2 20 Jan 07:45:26 07:49:45 77° 103° (ESE) 07:54:01 2200.000
HO-68 20 Jan 07:50:55 07:58:05 67° 103° (ESE) 08:05:11 435.675
SEEDS 20 Jan 07:57:20 08:01:32 57° 100° (E) 08:05:41 437.485
O/OREOS (USA 219) 20 Jan 07:59:52 08:00:55 11° 304° (NW) 08:01:57 437.305
Cosmos 2499 20 Jan 07:59:56 08:06:27 40° 271° (W) 08:12:55 435.465 / 435.565
COMPASS 1 20 Jan 08:03:32 08:07:32 42° 99° (E) 08:11:30 437.405
STRAND 1 20 Jan 08:13:17 08:16:03 15° 268° (W) 08:18:50 437.568
CUTE-I 20 Jan 08:13:58 08:16:16 13° 298° (WNW) 08:18:33 437.470
Oscar 11 20 Jan 08:14:03 08:16:37 15° 93° (E) 08:19:11 145.826/435.025
AAUSAT CUBESAT 2 20 Jan 08:15:10 08:19:10 43° 99° (E) 08:23:08 437.432
CUBEBUG 2 20 Jan 08:22:58 08:27:18 70° 101° (E) 08:31:47 437.445
PRISM 20 Jan 08:44:16 08:48:23 71° 76° (ENE) 08:52:34 437.425
SO-50 20 Jan 08:46:12 08:50:22 30° 307° (NW) 08:54:29 436.795
FUNcube-1 20 Jan 08:48:43 08:52:56 44° 99° (E) 08:57:13 145.935
UWE-3 20 Jan 08:52:03 08:56:27 87° 281° (W) 09:00:58 435.000/436.395/437.385
CUTE 1.7 + AOD 2 20 Jan 08:52:52 08:56:05 21° 291° (WNW) 08:59:17 437.475
GONETS M04 20 Jan 08:53:35 09:00:32 27° 277° (W) 09:07:31
UNISAT 6 20 Jan 09:03:06 09:06:50 30° 71° (ENE) 09:10:32 437.425
ZACube-1 20 Jan 09:11:30 09:15:55 89° 286° (WNW) 09:20:24 437.345
TIGRISAT 20 Jan 09:16:15 09:20:13 39° 73° (ENE) 09:24:11 435.000
HUMSAT D 20 Jan 09:26:05 09:29:02 18° 94° (E) 09:31:59 437.325/437.525
PCSat 20 Jan 09:26:56 09:31:37 29° 55° (NE) 09:36:16 145.827
ANTELSAT 20 Jan 09:31:08 09:35:21 65° 76° (ENE) 09:39:34 437.575/2403.000
DELFI C3 20 Jan 09:34:50 09:38:38 42° 99° (E) 09:42:23 145.870
SEEDS 20 Jan 09:35:37 09:36:40 11° 295° (WNW) 09:37:43 437.485
HO-68 20 Jan 09:39:59 09:45:07 22° 300° (WNW) 09:50:14 435.675
COMPASS 1 20 Jan 09:40:30 09:42:40 14° 293° (WNW) 09:44:50 437.405
Oscar 11 20 Jan 09:48:49 09:52:52 39° 287° (WNW) 09:56:54 145.826/435.025
AAUSAT CUBESAT 2 20 Jan 09:52:11 09:54:12 13° 293° (WNW) 09:56:13 437.432
RS-15 20 Jan 09:53:04 10:05:05 64° 248° (WSW) 10:16:34 29.354- 29.394
FUNcube-1 20 Jan 10:26:19 10:28:47 15° 293° (WNW) 10:31:17 145.935
JAS-2 20 Jan 10:31:50 10:37:04 81° 75° (ENE) 10:42:48 435.910
QB50P1 20 Jan 10:33:45 10:37:20 28° 71° (ENE) 10:40:56 145.935-145.965
POLYITAN 1 20 Jan 10:37:42 10:41:25 31° 71° (ENE) 10:45:08 437.675
QB50P2 20 Jan 10:38:49 10:42:38 35° 72° (ENE) 10:46:28 145.880/145.840
UNISAT 6 20 Jan 10:40:33 10:43:33 19° 266° (W) 10:46:33 437.425
TIGRISAT 20 Jan 10:54:49 10:57:03 14° 267° (W) 10:59:18 435.000
POPSAT HIP 1 20 Jan 11:00:03 11:04:09 58° 75° (ENE) 11:08:17 437.405
HUMSAT D 20 Jan 11:00:50 11:04:40 32° 288° (WNW) 11:08:30 437.325/437.525
BY70-1 20 Jan 11:02:10 11:05:25 57° 100° (E) 11:08:25 436.1900
PCSat 20 Jan 11:10:07 11:15:01 35° 251° (WSW) 11:19:53 145.827
DUCHIFAT 1 20 Jan 11:11:04 11:15:12 68° 76° (ENE) 11:19:20 145.980
DELFI C3 20 Jan 11:11:19 11:13:01 12° 293° (WNW) 11:14:42 145.870
CUBEBUG 1 20 Jan 11:13:21 11:16:32 20° 95° (E) 11:19:42 437.445
NANOSAT C BR1 20 Jan 11:16:28 11:20:39 88° 70° (ENE) 11:24:50 145.865
AISAT 20 Jan 11:29:19 11:32:28 19° 95° (E) 11:35:36 437.250
50 SAT 20 Jan 11:44:23 11:46:47 17° 95° (E) 11:49:10 437.505
BUGSAT 1 20 Jan 11:46:29 11:50:30 59° 75° (ENE) 11:54:29 437.445
ESTCUBE 1 20 Jan 11:49:42 11:54:15 83° 283° (WNW) 11:58:46 437.505/2401.250
VELOX 1 20 Jan 12:01:52 12:06:04 43° 99° (E) 12:10:14 145.980
QB50P1 20 Jan 12:10:02 12:13:05 19° 265° (W) 12:16:08 145.935-145.965
POLYITAN 1 20 Jan 12:14:26 12:17:14 17° 266° (W) 12:20:02 437.675
QB50P2 20 Jan 12:15:57 12:18:30 16° 266° (W) 12:21:04 145.880/145.840
SPROUT 20 Jan 12:31:33 12:35:48 75° 102° (ESE) 12:40:03 437.525
UKube-1 20 Jan 12:34:02 12:37:54 32° 98° (E) 12:41:46 .
DX 1 20 Jan 12:34:26 12:38:38 47° 100° (E) 12:42:46 434.975-435.025
Oscar 19 20 Jan 12:38:27 12:43:31 57° 73° (ENE) 12:48:37 437.125/150
CUBEBUG 1 20 Jan 12:49:03 12:52:47 29° 289° (WNW) 12:56:31 437.445
AO-85 20 Jan 12:49:41 12:53:14 21° 111° (ESE) 12:56:37 145.980
Gurwin Techsat 1B 20 Jan 12:51:52 12:56:47 40° 71° (ENE) 13:01:42 435.225
AIST 1 20 Jan 12:54:53 12:56:48 13° 86° (E) 12:58:43
AISAT 20 Jan 13:05:04 13:08:56 31° 289° (WNW) 13:12:47 437.250
AO-7 20 Jan 13:06:59 13:11:54 17° 53° (NE) 13:16:48 29.400- 29.500
Cosmos 2491 20 Jan 13:07:07 13:15:45 58° 80° (E) 13:24:22 435.465 / 435.565
YUBILEINY 20 Jan 13:11:09 13:18:10 28° 83° (E) 13:25:10 435.215
50 SAT 20 Jan 13:17:07 13:19:56 22° 289° (WNW) 13:22:41 437.505
ITAMSAT 1 20 Jan 13:23:41 13:26:33 15° 64° (ENE) 13:29:27 435.822/435.867
CUSAT 1 20 Jan 13:38:48 13:46:15 41° 74° (ENE) 13:53:04 437.405
VELOX 1 20 Jan 13:39:40 13:42:07 15° 294° (WNW) 13:44:33 145.980
JUGNU 20 Jan 13:55:58 13:58:34 13° 170° (S) 14:01:09 437.505
TISAT 1 20 Jan 13:59:48 14:03:59 79° 284° (WNW) 14:08:09 437.305
ITUPSAT 1 20 Jan 14:04:29 14:07:54 19° 95° (E) 14:11:17 437.325
UKube-1 20 Jan 14:10:41 14:13:40 19° 293° (WNW) 14:16:39 .
DX 1 20 Jan 14:12:15 14:14:21 14° 295° (WNW) 14:16:28 434.975-435.025
Oscar 19 20 Jan 14:20:19 14:23:08 15° 268° (W) 14:25:58 437.125/150
Cosmos 2504 20 Jan 14:25:57 14:34:11 47° 90° (E) 14:41:59 435.465 / 435.565
DANDE 20 Jan 14:27:13 14:34:29 38° 74° (ENE) 14:42:03 436.750
AO-85 20 Jan 14:29:01 14:33:27 38° 304° (WNW) 14:37:35 145.980
AIST 1 20 Jan 14:29:47 14:33:57 43° 280° (W) 14:38:07
Gurwin Techsat 1B 20 Jan 14:32:46 14:36:48 22° 265° (W) 14:40:52 435.225
MOZHAYETS 4 20 Jan 14:36:23 14:38:00 12° 91° (E) 14:39:37
BEESAT 20 Jan 14:38:11 14:42:48 45° 100° (E) 14:47:22 436.000
SWISSCUBE 20 Jan 14:39:45 14:44:28 54° 101° (E) 14:49:09 437.505
AO-7 20 Jan 14:55:03 15:03:25 84° 71° (ENE) 15:11:50 29.400- 29.500
ITAMSAT 1 20 Jan 15:00:24 15:05:29 59° 259° (WSW) 15:10:36 435.822/435.867
Cosmos 2491 20 Jan 15:05:01 15:11:57 27° 277° (W) 15:18:54 435.465 / 435.565
YUBILEINY 20 Jan 15:05:43 15:14:19 57° 281° (W) 15:23:00 435.215
CUSAT 1 20 Jan 15:20:52 15:28:01 38° 272° (W) 15:34:34 437.405
SO-50 20 Jan 15:41:05 15:43:07 13° 45° (NE) 15:45:09 436.795
ITUPSAT 1 20 Jan 15:41:22 15:45:48 38° 289° (WNW) 15:50:14 437.325
BEESAT 3 20 Jan 15:43:00 15:46:32 36° 114° (ESE) 15:50:09 437.485
JUGNU 20 Jan 15:43:12 15:46:47 17° 180° (S) 15:50:24 437.505
M-CUBED/EXP-1 PRIME 20 Jan 16:01:52 16:04:46 28° 102° (ESE) 16:07:36 437.505
STARS 20 Jan 16:08:22 16:10:58 15° 94° (E) 16:13:33 437.465
DANDE 20 Jan 16:09:43 16:17:13 46° 269° (W) 16:25:01 436.750
MOZHAYETS 4 20 Jan 16:10:54 16:15:28 57° 285° (WNW) 16:20:01
BRITE-PL 20 Jan 16:12:58 16:18:33 60° 74° (ENE) 16:24:06 437.365/2234.400
CUTE-I 20 Jan 16:15:59 16:16:34 10° 60° (ENE) 16:17:10 437.470
BEESAT 20 Jan 16:17:09 16:20:10 17° 294° (WNW) 16:23:12 436.000
GOMX 1 20 Jan 16:18:02 16:22:31 27° 70° (ENE) 16:26:52 467.674
SWISSCUBE 20 Jan 16:19:10 16:21:45 15° 295° (WNW) 16:24:21 437.505
Cosmos 2504 20 Jan 16:19:59 16:27:37 34° 285° (WNW) 16:34:57 435.465 / 435.565
BEESAT 2 20 Jan 16:27:36 16:31:22 49° 115° (ESE) 16:35:13 435.950
O/OREOS (USA 219) 20 Jan 16:29:20 16:33:51 80° 69° (ENE) 16:38:23 437.305
AUBIESAT-1 20 Jan 16:38:08 16:41:28 79° 107° (ESE) 16:44:45 437.475
KKS-1 20 Jan 16:50:11 16:54:36 70° 284° (WNW) 16:58:58 437.445
AO-7 20 Jan 16:51:50 16:56:57 17° 267° (W) 17:02:05 29.400- 29.500
HORYU 2 20 Jan 16:54:50 16:59:13 73° 75° (ENE) 17:03:37 437.375
Cubesat XI-IV 20 Jan 16:55:00 16:59:18 26° 68° (ENE) 17:03:38 437.490
CUBESAT XI-V 20 Jan 16:56:42 17:01:21 62° 101° (E) 17:05:57 437.345
DOVE 4 20 Jan 16:57:15 17:01:17 25° 71° (ENE) 17:05:10 437.250
NOAA 18 20 Jan 17:01:02 17:04:30 17° 63° (ENE) 17:07:58 137.9125
NOAA 15 20 Jan 17:03:13 17:07:53 33° 69° (ENE) 17:12:36 137.62
SRMSAT 20 Jan 17:12:49 17:16:16 16° 174° (S) 17:19:44 437.500
SO-50 20 Jan 17:19:36 17:24:05 73° 242° (WSW) 17:28:31 436.795
BEESAT 3 20 Jan 17:21:40 17:24:16 17° 310° (NW) 17:26:54 437.485
JUGNU 20 Jan 17:32:17 17:35:02 13° 190° (S) 17:37:47 437.505
LilacSat-2 20 Jan 17:37:31 17:41:16 74° 75° (ENE) 17:45:03 437.200
M-CUBED/EXP-1 PRIME 20 Jan 17:37:40 17:38:59 12° 298° (WNW) 17:40:17 437.505
STARS 20 Jan 17:43:22 17:47:26 39° 288° (WNW) 17:51:29 437.465
CUTE-I 20 Jan 17:50:28 17:55:47 90° 223° (SW) 18:01:07 437.470
BRITE-PL 20 Jan 17:53:46 17:57:17 17° 269° (W) 18:00:48 437.365/2234.400
GOMX 1 20 Jan 17:55:30 18:00:24 34° 263° (W) 18:05:09 467.674
GONETS M04 20 Jan 18:04:48 18:06:08 10° 75° (ENE) 18:07:28
BEESAT 2 20 Jan 18:07:20 18:09:25 14° 312° (NW) 18:11:32 435.950
CUTE 1.7 + AOD 2 20 Jan 18:07:45 18:10:06 15° 67° (ENE) 18:12:28 437.475
HO-68 20 Jan 18:16:33 18:23:00 37° 66° (ENE) 18:29:28 435.675
CINEMA 3 20 Jan 18:24:43 18:28:58 44° 74° (ENE) 18:33:03 145.822/145.860
AIST 2 20 Jan 18:27:50 18:30:30 17° 109° (ESE) 18:33:11 435.215
DOVE 4 20 Jan 18:34:20 18:38:48 31° 263° (W) 18:43:05 437.250
Cubesat XI-IV 20 Jan 18:34:23 18:39:11 34° 262° (W) 18:44:00 437.490
CANX-2 20 Jan 18:35:16 18:39:07 35° 73° (ENE) 18:43:02 2200.000
CUBESAT XI-V 20 Jan 18:36:22 18:38:08 12° 296° (WNW) 18:39:54 437.345
NOAA 18 20 Jan 18:39:14 18:44:38 58° 258° (WSW) 18:50:04 137.9125
Cosmos 2499 20 Jan 18:39:55 18:46:54 29° 86° (E) 18:53:28 435.465 / 435.565
NOAA 15 20 Jan 18:43:14 18:47:38 27° 264° (W) 18:52:04 137.62
STRAND 1 20 Jan 18:45:37 18:49:41 23° 95° (E) 18:53:45 437.568
SEEDS 20 Jan 18:46:21 18:49:53 27° 71° (ENE) 18:53:26 437.485
COMPASS 1 20 Jan 18:51:56 18:55:00 20° 69° (ENE) 18:58:04 437.405
SRMSAT 20 Jan 19:01:06 19:04:42 16° 184° (S) 19:08:16 437.500
AAUSAT CUBESAT 2 20 Jan 19:03:01 19:06:05 20° 69° (ENE) 19:09:10 437.432
CUBEBUG 2 20 Jan 19:18:29 19:22:21 37° 73° (ENE) 19:26:11 437.445
CUTE 1.7 + AOD 2 20 Jan 19:41:33 19:45:32 41° 262° (W) 19:49:35 437.475
FUNcube-1 20 Jan 19:42:06 19:45:19 22° 70° (ENE) 19:48:34 145.935
UWE-3 20 Jan 19:46:16 19:50:15 49° 75° (ENE) 19:54:16 435.000/436.395/437.385
GONETS M04 20 Jan 19:52:38 20:01:15 73° 93° (E) 20:09:58
HO-68 20 Jan 20:04:02 20:10:36 38° 262° (W) 20:17:13 435.675
CINEMA 3 20 Jan 20:04:03 20:06:14 13° 267° (W) 20:08:22 145.822/145.860
ZACube-1 20 Jan 20:04:30 20:08:27 46° 74° (ENE) 20:12:26 437.345
AIST 2 20 Jan 20:04:51 20:08:39 36° 305° (NW) 20:12:30 435.215
CANX-2 20 Jan 20:12:28 20:15:04 16° 267° (W) 20:17:41 2200.000
DELFI C3 20 Jan 20:18:26 20:21:03 17° 69° (ENE) 20:23:42 145.870
SEEDS 20 Jan 20:22:18 20:25:30 21° 265° (W) 20:28:45 437.485
STRAND 1 20 Jan 20:24:14 20:28:53 35° 290° (WNW) 20:33:31 437.568
COMPASS 1 20 Jan 20:26:43 20:30:20 28° 264° (W) 20:33:58 437.405
PRISM 20 Jan 20:30:45 20:32:10 12° 93° (E) 20:33:34 437.425
Cosmos 2499 20 Jan 20:31:26 20:39:38 51° 281° (W) 20:47:18 435.465 / 435.565
AAUSAT CUBESAT 2 20 Jan 20:37:47 20:41:21 27° 264° (W) 20:44:56 437.432
Oscar 11 20 Jan 20:39:59 20:44:17 76° 258° (WSW) 20:48:38 145.826/435.025
SRMSAT 20 Jan 20:51:51 20:53:05 11° 194° (SSW) 20:54:19 437.500
CUBEBUG 2 20 Jan 20:56:53 20:59:06 14° 267° (W) 21:01:18 437.445
TIGRISAT 20 Jan 21:12:47 21:13:46 11° 92° (E) 21:14:45 435.000
FUNcube-1 20 Jan 21:18:08 21:21:27 23° 264° (W) 21:24:47 145.935
UWE-3 20 Jan 21:26:12 21:26:59 10° 268° (W) 21:27:45 435.000/436.395/437.385
ANTELSAT 20 Jan 21:26:16 21:29:16 17° 94° (E) 21:32:16 437.575/2403.000
ISS 20 Jan 21:42:09 21:45:23 67° 135° (SE) 21:48:37 145.825
ZACube-1 20 Jan 21:43:43 21:44:58 11° 268° (W) 21:46:13 437.345
JAS-2 20 Jan 21:44:24 21:48:41 16° 91° (E) 21:53:03 435.910
HUMSAT D 20 Jan 21:48:26 21:52:29 69° 258° (WSW) 21:56:37 437.325/437.525
DELFI C3 20 Jan 21:52:03 21:55:36 30° 263° (W) 21:59:10 145.870
GONETS M04 20 Jan 21:52:41 21:58:52 21° 292° (WNW) 22:05:09
RS-15 20 Jan 22:01:47 22:11:07 29° 102° (ESE) 22:20:43 29.354- 29.394
PRISM 20 Jan 22:03:44 22:07:39 45° 287° (WNW) 22:11:33 437.425
CUBEBUG 1 20 Jan 22:07:48 22:09:45 13° 65° (ENE) 22:11:42 437.445
AISAT 20 Jan 22:25:01 22:27:05 13° 65° (ENE) 22:29:08 437.250
UNISAT 6 20 Jan 22:33:02 22:37:30 78° 284° (WNW) 22:42:03 437.425
BY70-1 20 Jan 22:43:44 22:46:34 50° 260° (W) 22:49:40 436.1900
ESTCUBE 1 20 Jan 22:45:57 22:50:25 62° 75° (ENE) 22:54:55 437.505/2401.250
TIGRISAT 20 Jan 22:46:20 22:50:43 59° 285° (WNW) 22:55:11 435.000
POPSAT HIP 1 20 Jan 22:49:43 22:51:11 12° 92° (E) 22:52:38 437.405
VELOX 1 20 Jan 22:56:25 23:00:11 28° 70° (ENE) 23:03:58 145.980
DUCHIFAT 1 20 Jan 22:59:34 23:01:33 13° 93° (E) 23:03:33 145.980
ANTELSAT 20 Jan 23:01:55 23:06:01 37° 287° (WNW) 23:10:12 437.575/2403.000
AO-85 20 Jan 23:02:48 23:06:43 78° 60° (ENE) 23:10:38 145.980
NANOSAT C BR1 20 Jan 23:04:38 23:07:24 17° 94° (E) 23:10:10 145.865
ISS 20 Jan 23:20:11 23:22:10 15° 333° (NNW) 23:24:07 145.825
SPROUT 20 Jan 23:22:02 23:25:57 37° 73° (ENE) 23:29:53 437.525
UKube-1 20 Jan 23:26:14 23:29:24 20° 68° (ENE) 23:32:32 .
JAS-2 20 Jan 23:26:50 23:34:11 87° 284° (WNW) 23:42:01 435.910
DX 1 20 Jan 23:27:14 23:30:59 29° 70° (ENE) 23:34:44 434.975-435.025
CUBEBUG 1 20 Jan 23:41:14 23:45:32 52° 260° (W) 23:49:51 437.445
50 SAT 20 Jan 23:47:51 23:51:25 86° 73° (ENE) 23:55:01 437.505
QB50P1 20 Jan 23:55:59 00:00:13 81° 101° (E) 00:04:27 145.935-145.965
AISAT 20 Jan 23:58:44 00:03:03 51° 260° (W) 00:07:24 437.250
POLYITAN 1 21 Jan 00:00:17 00:04:32 89° 280° (W) 00:08:46 437.675
QB50P2 21 Jan 00:01:33 00:05:48 80° 283° (WNW) 00:10:02 145.880/145.840
BEESAT 3 21 Jan 00:04:22 00:05:24 11° 46° (NE) 00:06:25 437.485
PCSat 21 Jan 00:05:16 00:10:23 45° 111° (ESE) 00:15:31 145.827
RS-15 21 Jan 00:10:36 00:22:23 74° 302° (WNW) 00:34:46 29.354- 29.394
Cosmos 2491 21 Jan 00:16:34 00:17:42 10° 75° (ENE) 00:18:49 435.465 / 435.565
POPSAT HIP 1 21 Jan 00:23:06 00:27:10 48° 286° (WNW) 00:31:14 437.405
ESTCUBE 1 21 Jan 00:27:04 00:27:34 10° 269° (W) 00:28:05 437.505/2401.250
Cosmos 2504 21 Jan 00:27:27 00:27:58 10° 63° (ENE) 00:28:29 435.465 / 435.565
VELOX 1 21 Jan 00:33:04 00:36:35 23° 264° (W) 00:40:06 145.980
DUCHIFAT 1 21 Jan 00:33:26 00:37:24 42° 287° (WNW) 00:41:21 145.980
NANOSAT C BR1 21 Jan 00:39:23 00:43:09 32° 288° (WNW) 00:46:55 145.865
AIST 1 21 Jan 00:39:47 00:43:35 31° 78° (ENE) 00:47:22
TISAT 1 21 Jan 00:48:15 00:52:17 49° 74° (ENE) 00:56:18 437.305
BEESAT 2 21 Jan 00:49:06 00:51:17 14° 48° (NE) 00:53:28 435.950
Oscar 19 21 Jan 00:53:33 00:57:45 25° 96° (E) 01:01:55 437.125/150
PHONESAT 2.4 21 Jan 00:57:11 00:59:13 27° 151° (SSE) 01:01:15 2401.200-2431.200
SPROUT 21 Jan 00:59:29 01:01:59 15° 267° (W) 01:04:28 437.525
UKube-1 21 Jan 01:01:23 01:05:11 30° 262° (W) 01:09:01 .
DX 1 21 Jan 01:03:48 01:07:08 21° 264° (W) 01:10:29 434.975-435.025
BUGSAT 1 21 Jan 01:06:05 01:10:00 50° 286° (WNW) 01:13:56 437.445
ITUPSAT 1 21 Jan 01:09:03 01:12:03 17° 66° (ENE) 01:15:04 437.325
Gurwin Techsat 1B 21 Jan 01:11:42 01:15:29 20° 94° (E) 01:19:17 435.225
JAS-2 21 Jan 01:14:10 01:18:18 16° 299° (WNW) 01:22:37 435.910
YUBILEINY 21 Jan 01:19:20 01:28:05 64° 81° (E) 01:36:44 435.215
BEESAT 3 21 Jan 01:39:28 01:43:27 70° 243° (WSW) 01:47:24 437.485
BEESAT 21 Jan 01:41:45 01:46:07 38° 71° (ENE) 01:50:30 436.000
SWISSCUBE 21 Jan 01:43:17 01:47:46 44° 72° (ENE) 01:52:18 437.505
PCSat 21 Jan 01:49:40 01:53:56 23° 307° (NW) 01:58:15 145.827
Cosmos 2491 21 Jan 02:04:13 02:12:51 73° 93° (E) 02:21:31 435.465 / 435.565
Cosmos 2504 21 Jan 02:15:18 02:22:40 78° 83° (E) 02:29:49 435.465 / 435.565
AIST 1 21 Jan 02:18:11 02:20:52 16° 273° (W) 02:23:32
BEESAT 2 21 Jan 02:25:26 02:29:21 50° 244° (WSW) 02:33:14 435.950
TISAT 1 21 Jan 02:27:02 02:28:08 11° 268° (W) 02:29:14 437.305
RS-15 21 Jan 02:28:18 02:37:32 24° 329° (NNW) 02:46:58 29.354- 29.394
PHONESAT 2.4 21 Jan 02:31:03 02:33:14 37° 346° (NNW) 02:35:24 2401.200-2431.200
Oscar 19 21 Jan 02:32:27 02:37:03 33° 290° (WNW) 02:41:37 437.125/150
CUSAT 1 21 Jan 02:36:51 02:41:19 35° 87° (E) 02:46:56 437.405
M-CUBED/EXP-1 PRIME 21 Jan 02:44:28 02:48:17 30° 68° (ENE) 02:51:54 437.505
ITUPSAT 1 21 Jan 02:44:57 02:49:28 45° 260° (W) 02:54:04 437.325
Gurwin Techsat 1B 21 Jan 02:50:34 02:55:36 44° 288° (WNW) 03:00:36 435.225
AO-7 21 Jan 03:00:38 03:07:58 33° 98° (E) 03:15:13 29.400- 29.500
STARS 21 Jan 03:04:33 03:05:05 10° 64° (ENE) 03:05:37 437.465
MOZHAYETS 4 21 Jan 03:09:26 03:14:00 86° 257° (WSW) 03:18:37
ITAMSAT 1 21 Jan 03:15:59 03:21:09 62° 101° (ESE) 03:26:18 435.822/435.867
YUBILEINY 21 Jan 03:17:34 03:24:04 24° 278° (W) 03:30:32 435.215
AUBIESAT-1 21 Jan 03:20:08 03:24:25 62° 71° (ENE) 03:28:26 437.475
BEESAT 21 Jan 03:20:39 03:23:58 19° 266° (W) 03:27:20 436.000
SWISSCUBE 21 Jan 03:22:50 03:25:45 16° 267° (W) 03:28:39 437.505
DANDE 21 Jan 03:34:11 03:37:15 25° 86° (E) 03:41:06 436.750
KKS-1 21 Jan 03:44:57 03:49:23 73° 75° (ENE) 03:53:50 437.445
CUBESAT XI-V 21 Jan 03:56:53 04:01:18 43° 73° (ENE) 04:05:45 437.345
Cosmos 2491 21 Jan 04:04:15 04:10:27 21° 292° (WNW) 04:16:43 435.465 / 435.565
PHONESAT 2.4 21 Jan 04:05:39 04:07:34 23° 2° (N) 04:09:30 2401.200-2431.200
Cosmos 2504 21 Jan 04:11:26 04:14:58 14° 280° (W) 04:18:29 435.465 / 435.565
ISS 21 Jan 04:12:38 04:15:20 24° 33° (NNE) 04:18:02 145.825
